Time,TemperatureF,DewpointF,PressureIn,WindDirection,WindDirectionDegrees,WindSpeedMPH,WindSpeedGustMPH,Humidity,HourlyPrecipIn,Conditions,Clouds,dailyrainin,SoftwareType,DateUTC
2013-07-26 00:02:00,71.8,41.2,29.96,ESE,122,0.0,6.0,33,0.00,,,0.00,meteohub,2013-07-26 07:02:00,
2013-07-26 00:07:00,71.4,40.8,29.97,SSE,165,0.0,5.0,33,0.00,,,0.00,meteohub,2013-07-26 07:07:00,
2013-07-26 00:12:00,71.8,41.2,29.97,ESE,111,0.0,4.0,33,0.00,,,0.00,meteohub,2013-07-26 07:12:00,
2013-07-26 00:17:00,71.1,41.4,29.97,NNE,23,0.0,4.0,34,0.00,,,0.00,meteohub,2013-07-26 07:17:00,
2013-07-26 00:22:00,70.3,40.6,29.97,ENE,78,0.0,4.0,34,0.00,,,0.00,meteohub,2013-07-26 07:22:00,
2013-07-26 00:27:00,69.8,41.0,29.97,East,79,0.0,1.0,35,0.00,,,0.00,meteohub,2013-07-26 07:27:00,
2013-07-26 00:32:00,69.4,40.6,29.97,East,79,0.0,0.0,35,0.00,,,0.00,meteohub,2013-07-26 07:32:00,
2013-07-26 00:37:00,69.4,39.9,29.97,ENE,77,0.0,0.0,34,0.00,,,0.00,meteohub,2013-07-26 07:37:00,
2013-07-26 00:47:00,69.8,38.7,29.96,East,79,0.0,0.0,32,0.00,,,0.00,meteohub,2013-07-26 07:47:00,
2013-07-26 00:57:00,70.2,38.1,29.96,East,79,0.0,0.0,31,0.00,,,0.00,meteohub,2013-07-26 07:57:00,
2013-07-26 01:07:00,70.2,38.1,29.96,East,79,0.0,0.0,31,0.00,,,0.00,meteohub,2013-07-26 08:07:00,
2013-07-26 01:12:00,70.2,38.1,29.96,South,177,0.0,0.0,31,0.00,,,0.00,meteohub,2013-07-26 08:12:00,
2013-07-26 01:22:00,69.8,39.4,29.95,South,177,0.0,0.0,33,0.00,,,0.00,meteohub,2013-07-26 08:22:00,
2013-07-26 01:27:00,70.0,39.6,29.95,South,177,0.0,0.0,33,0.00,,,0.00,meteohub,2013-07-26 08:27:00,
2013-07-26 01:32:00,69.8,38.7,29.94,South,177,0.0,0.0,32,0.00,,,0.00,meteohub,2013-07-26 08:32:00,
2013-07-26 01:37:00,70.0,38.8,29.95,South,177,0.0,0.0,32,0.00,,,0.00,meteohub,2013-07-26 08:37:00,
2013-07-26 01:42:00,70.0,38.8,29.95,South,176,0.0,0.0,32,0.00,,,0.00,meteohub,2013-07-26 08:42:00,
2013-07-26 01:47:00,70.2,39.7,29.95,South,176,0.0,0.0,33,0.00,,,0.00,meteohub,2013-07-26 08:47:00,
2013-07-26 01:57:00,70.3,38.3,29.94,South,176,0.0,0.0,31,0.00,,,0.00,meteohub,2013-07-26 08:57:00,
2013-07-26 02:02:00,70.3,38.3,29.94,South,176,0.0,0.0,31,0.00,,,0.00,meteohub,2013-07-26 09:02:00,
2013-07-26 02:12:00,70.5,37.6,29.94,South,176,0.0,0.0,30,0.00,,,0.00,meteohub,2013-07-26 09:12:00,
2013-07-26 02:17:00,70.5,37.6,29.94,South,177,0.0,0.0,30,0.00,,,0.00,meteohub,2013-07-26 09:17:00,
2013-07-26 02:27:00,70.7,36.9,29.94,South,177,0.0,0.0,29,0.00,,,0.00,meteohub,2013-07-26 09:27:00,
2013-07-26 02:32:00,70.9,37.0,29.94,South,177,0.0,0.0,29,0.00,,,0.00,meteohub,2013-07-26 09:32:00,
2013-07-26 02:42:00,71.1,37.2,29.94,South,177,0.0,0.0,29,0.00,,,0.00,meteohub,2013-07-26 09:42:00,
2013-07-26 02:47:00,71.1,37.2,29.94,South,177,0.0,0.0,29,0.00,,,0.00,meteohub,2013-07-26 09:47:00,
2013-07-26 02:52:00,71.1,37.2,29.94,South,177,0.0,0.0,29,0.00,,,0.00,meteohub,2013-07-26 09:52:00,
2013-07-26 02:57:00,71.1,37.2,29.94,South,177,0.0,0.0,29,0.00,,,0.00,meteohub,2013-07-26 09:57:00,
2013-07-26 03:07:00,70.9,37.0,29.93,South,177,0.0,0.0,29,0.00,,,0.00,meteohub,2013-07-26 10:07:00,
2013-07-26 03:17:00,71.1,36.3,29.94,South,177,0.0,0.0,28,0.00,,,0.00,meteohub,2013-07-26 10:17:00,
2013-07-26 03:22:00,71.2,36.5,29.94,South,177,0.0,0.0,28,0.00,,,0.00,meteohub,2013-07-26 10:22:00,
2013-07-26 03:32:00,71.1,36.3,29.94,South,177,0.0,0.0,28,0.00,,,0.00,meteohub,2013-07-26 10:32:00,
2013-07-26 03:37:00,71.1,36.3,29.93,South,177,0.0,0.0,28,0.00,,,0.00,meteohub,2013-07-26 10:37:00,
2013-07-26 03:42:00,71.2,37.4,29.93,South,177,0.0,0.0,29,0.00,,,0.00,meteohub,2013-07-26 10:42:00,
2013-07-26 03:52:00,71.2,37.4,29.93,South,177,0.0,0.0,29,0.00,,,0.00,meteohub,2013-07-26 10:52:00,
2013-07-26 03:57:00,71.2,37.4,29.94,South,177,0.0,0.0,29,0.00,,,0.00,meteohub,2013-07-26 10:57:00,
2013-07-26 04:07:00,71.2,37.4,29.94,South,176,0.0,0.0,29,0.00,,,0.00,meteohub,2013-07-26 11:07:00,
2013-07-26 04:12:00,71.1,37.2,29.94,South,176,0.0,0.0,29,0.00,,,0.00,meteohub,2013-07-26 11:12:00,
2013-07-26 04:17:00,71.2,38.3,29.94,South,176,0.0,0.0,30,0.00,,,0.00,meteohub,2013-07-26 11:17:00,
2013-07-26 04:22:00,71.2,38.3,29.94,South,177,0.0,0.0,30,0.00,,,0.00,meteohub,2013-07-26 11:22:00,
2013-07-26 04:27:00,71.2,38.3,29.94,South,177,0.0,0.0,30,0.00,,,0.00,meteohub,2013-07-26 11:27:00,
2013-07-26 04:32:00,71.2,39.0,29.94,South,177,0.0,0.0,31,0.00,,,0.00,meteohub,2013-07-26 11:32:00,
2013-07-26 04:42:00,71.1,38.8,29.94,South,174,0.0,0.0,31,0.00,,,0.00,meteohub,2013-07-26 11:42:00,
2013-07-26 04:47:00,70.9,39.6,29.94,South,174,0.0,0.0,32,0.00,,,0.00,meteohub,2013-07-26 11:47:00,
2013-07-26 04:52:00,71.1,39.7,29.94,South,177,0.0,0.0,32,0.00,,,0.00,meteohub,2013-07-26 11:52:00,
2013-07-26 04:57:00,71.1,39.7,29.94,South,177,0.0,0.0,32,0.00,,,0.00,meteohub,2013-07-26 11:57:00,
2013-07-26 05:02:00,71.2,39.9,29.94,South,177,0.0,0.0,32,0.00,,,0.00,meteohub,2013-07-26 12:02:00,
2013-07-26 05:07:00,71.2,39.9,29.94,South,177,0.0,0.0,32,0.00,,,0.00,meteohub,2013-07-26 12:07:00,
2013-07-26 05:17:00,71.2,39.9,29.94,South,177,0.0,0.0,32,0.00,,,0.00,meteohub,2013-07-26 12:17:00,
2013-07-26 05:22:00,71.1,39.7,29.94,South,177,0.0,0.0,32,0.00,,,0.00,meteohub,2013-07-26 12:22:00,
2013-07-26 05:27:00,70.9,40.3,29.95,South,177,0.0,0.0,33,0.00,,,0.00,meteohub,2013-07-26 12:27:00,
2013-07-26 05:37:00,70.5,40.1,29.95,South,177,0.0,0.0,33,0.00,,,0.00,meteohub,2013-07-26 12:37:00,
2013-07-26 05:42:00,70.3,40.6,29.95,South,177,0.0,0.0,34,0.00,,,0.00,meteohub,2013-07-26 12:42:00,
2013-07-26 05:47:00,70.2,40.5,29.95,South,177,0.0,0.0,34,0.00,,,0.00,meteohub,2013-07-26 12:47:00,
2013-07-26 05:52:00,70.0,40.3,29.95,South,177,0.0,0.0,34,0.00,,,0.00,meteohub,2013-07-26 12:52:00,
2013-07-26 05:57:00,69.6,39.9,29.96,South,176,0.0,0.0,34,0.00,,,0.00,meteohub,2013-07-26 12:57:00,
2013-07-26 06:02:00,69.4,39.9,29.96,South,176,0.0,0.0,34,0.00,,,0.00,meteohub,2013-07-26 13:02:00,
2013-07-26 06:12:00,69.6,40.8,29.96,South,177,0.0,0.0,35,0.00,,,0.00,meteohub,2013-07-26 13:12:00,
2013-07-26 06:17:00,69.4,40.6,29.96,South,176,0.0,0.0,35,0.00,,,0.00,meteohub,2013-07-26 13:17:00,
2013-07-26 06:27:00,69.6,42.3,29.96,South,176,0.0,0.0,37,0.00,,,0.00,meteohub,2013-07-26 13:27:00,
2013-07-26 06:37:00,69.8,43.0,29.96,South,176,0.0,0.0,38,0.00,,,0.00,meteohub,2013-07-26 13:37:00,
2013-07-26 06:47:00,69.6,43.5,29.96,South,176,0.0,0.0,39,0.00,,,0.00,meteohub,2013-07-26 13:47:00,
2013-07-26 06:52:00,69.6,42.8,29.96,South,176,0.0,0.0,38,0.00,,,0.00,meteohub,2013-07-26 13:52:00,
2013-07-26 07:02:00,69.8,44.4,29.96,South,177,0.0,0.0,40,0.00,,,0.00,meteohub,2013-07-26 14:02:00,
2013-07-26 07:07:00,70.0,44.6,29.97,South,177,0.0,0.0,40,0.00,,,0.00,meteohub,2013-07-26 14:07:00,
2013-07-26 07:12:00,70.0,44.6,29.97,South,177,0.0,0.0,40,0.00,,,0.00,meteohub,2013-07-26 14:12:00,
2013-07-26 07:17:00,70.2,44.1,29.97,South,177,0.0,0.0,39,0.00,,,0.00,meteohub,2013-07-26 14:17:00,
2013-07-26 07:27:00,70.3,45.5,29.97,South,177,0.0,0.0,41,0.00,,,0.00,meteohub,2013-07-26 14:27:00,
2013-07-26 07:32:00,70.3,45.0,29.97,South,177,0.0,0.0,40,0.00,,,0.00,meteohub,2013-07-26 14:32:00,
2013-07-26 07:37:00,70.5,45.7,29.98,South,174,0.0,0.0,41,0.00,,,0.00,meteohub,2013-07-26 14:37:00,
2013-07-26 07:47:00,70.9,45.3,29.98,South,174,0.0,0.0,40,0.00,,,0.00,meteohub,2013-07-26 14:47:00,
2013-07-26 07:52:00,70.9,46.0,29.98,South,174,0.0,0.0,41,0.00,,,0.00,meteohub,2013-07-26 14:52:00,
2013-07-26 07:57:00,70.9,44.8,29.99,South,174,0.0,0.0,39,0.00,,,0.00,meteohub,2013-07-26 14:57:00,
2013-07-26 08:02:00,71.2,45.7,29.99,South,174,0.0,0.0,40,0.00,,,0.00,meteohub,2013-07-26 15:02:00,
2013-07-26 08:07:00,71.4,46.6,29.99,South,174,0.0,0.0,41,0.00,,,0.00,meteohub,2013-07-26 15:07:00,
2013-07-26 08:12:00,71.4,45.9,29.99,South,174,0.0,0.0,40,0.00,,,0.00,meteohub,2013-07-26 15:12:00,
2013-07-26 08:17:00,71.6,45.3,29.99,South,174,0.0,0.0,39,0.00,,,0.00,meteohub,2013-07-26 15:17:00,
2013-07-26 08:27:00,71.8,45.5,29.99,South,177,0.0,0.0,39,0.00,,,0.00,meteohub,2013-07-26 15:27:00,
2013-07-26 08:37:00,72.3,44.6,30.00,South,177,0.0,0.0,37,0.00,,,0.00,meteohub,2013-07-26 15:37:00,
2013-07-26 08:42:00,72.9,45.7,30.00,South,177,0.0,0.0,38,0.00,,,0.00,meteohub,2013-07-26 15:42:00,
2013-07-26 08:52:00,73.4,47.7,30.01,South,177,0.0,0.0,40,0.00,,,0.00,meteohub,2013-07-26 15:52:00,
2013-07-26 08:57:00,73.4,48.2,30.01,SSE,159,0.0,0.0,41,0.00,,,0.00,meteohub,2013-07-26 15:57:00,
2013-07-26 09:07:00,72.5,48.0,30.01,SSE,158,3.0,7.0,42,0.00,,,0.00,meteohub,2013-07-26 16:07:00,
2013-07-26 09:12:00,72.0,48.2,30.01,SE,134,4.0,9.0,43,0.00,,,0.00,meteohub,2013-07-26 16:12:00,
2013-07-26 09:17:00,71.6,49.1,30.00,South,172,1.0,9.0,45,0.00,,,0.00,meteohub,2013-07-26 16:17:00,
2013-07-26 09:22:00,71.4,50.2,30.00,SE,138,1.0,10.0,47,0.00,,,0.00,meteohub,2013-07-26 16:22:00,
2013-07-26 09:27:00,71.1,50.4,30.01,ESE,121,0.0,10.0,48,0.00,,,0.00,meteohub,2013-07-26 16:27:00,
2013-07-26 09:37:00,70.5,49.8,30.01,ENE,62,1.0,6.0,48,0.00,,,0.00,meteohub,2013-07-26 16:37:00,
2013-07-26 09:47:00,69.8,51.4,30.01,ENE,65,3.0,10.0,52,0.00,,,0.00,meteohub,2013-07-26 16:47:00,
2013-07-26 09:57:00,68.7,53.4,30.01,SE,138,1.0,10.0,58,0.00,,,0.00,meteohub,2013-07-26 16:57:00,
2013-07-26 10:02:00,68.9,54.5,30.01,South,180,2.0,7.0,60,0.00,,,0.00,meteohub,2013-07-26 17:02:00,
2013-07-26 10:07:00,69.4,54.9,30.00,SSW,194,0.0,7.0,60,0.00,,,0.00,meteohub,2013-07-26 17:07:00,
2013-07-26 10:12:00,69.8,55.8,30.01,SE,139,2.0,7.0,61,0.00,,,0.00,meteohub,2013-07-26 17:12:00,
2013-07-26 10:17:00,70.2,54.1,30.01,East,93,5.0,7.0,57,0.00,,,0.00,meteohub,2013-07-26 17:17:00,
2013-07-26 10:27:00,70.9,54.3,30.00,SW,215,3.0,12.0,56,0.00,,,0.00,meteohub,2013-07-26 17:27:00,
2013-07-26 10:32:00,71.4,54.5,30.00,SE,139,5.0,12.0,55,0.00,,,0.00,meteohub,2013-07-26 17:32:00,
2013-07-26 10:37:00,72.0,54.9,29.99,SSE,158,4.0,6.0,55,0.00,,,0.00,meteohub,2013-07-26 17:37:00,
2013-07-26 10:42:00,72.9,55.2,29.99,ESE,117,2.0,6.0,54,0.00,,,0.00,meteohub,2013-07-26 17:42:00,
2013-07-26 10:47:00,73.6,54.9,30.00,South,173,0.0,6.0,52,0.00,,,0.00,meteohub,2013-07-26 17:47:00,
2013-07-26 10:57:00,73.8,55.0,30.00,SSE,155,3.0,6.0,52,0.00,,,0.00,meteohub,2013-07-26 17:57:00,
2013-07-26 11:02:00,73.9,54.1,30.00,SE,136,2.0,7.0,50,0.00,,,0.00,meteohub,2013-07-26 18:02:00,
2013-07-26 11:07:00,74.5,54.1,30.00,SSW,195,3.0,7.0,49,0.00,,,0.00,meteohub,2013-07-26 18:07:00,
2013-07-26 11:12:00,74.8,55.0,30.00,South,169,4.0,8.0,50,0.00,,,0.00,meteohub,2013-07-26 18:12:00,
2013-07-26 11:17:00,75.0,54.0,30.00,ESE,108,3.0,8.0,48,0.00,,,0.00,meteohub,2013-07-26 18:17:00,
2013-07-26 11:22:00,74.8,55.0,30.00,East,100,0.0,8.0,50,0.00,,,0.00,meteohub,2013-07-26 18:22:00,
2013-07-26 11:32:00,74.7,54.3,30.00,SSW,201,0.0,7.0,49,0.00,,,0.00,meteohub,2013-07-26 18:32:00,
2013-07-26 11:37:00,74.8,55.0,29.99,SE,136,1.0,4.0,50,0.00,,,0.00,meteohub,2013-07-26 18:37:00,
2013-07-26 11:42:00,75.4,54.3,29.99,East,82,3.0,7.0,48,0.00,,,0.00,meteohub,2013-07-26 18:42:00,
2013-07-26 11:52:00,77.0,55.2,29.99,East,87,1.0,8.0,47,0.00,,,0.00,meteohub,2013-07-26 18:52:00,
2013-07-26 12:02:00,77.0,54.0,29.99,ESE,112,2.0,8.0,45,0.00,,,0.00,meteohub,2013-07-26 19:02:00,
2013-07-26 12:07:00,76.8,55.0,29.99,ESE,102,2.0,8.0,47,0.00,,,0.00,meteohub,2013-07-26 19:07:00,
2013-07-26 12:12:00,77.0,55.2,29.99,SSW,204,2.0,8.0,47,0.00,,,0.00,meteohub,2013-07-26 19:12:00,
2013-07-26 12:22:00,76.6,54.9,29.99,SE,124,3.0,7.0,47,0.00,,,0.00,meteohub,2013-07-26 19:22:00,
2013-07-26 12:27:00,76.3,54.5,29.99,NE,42,5.0,7.0,47,0.00,,,0.00,meteohub,2013-07-26 19:27:00,
2013-07-26 12:32:00,75.6,55.0,29.99,SE,131,1.0,8.0,49,0.00,,,0.00,meteohub,2013-07-26 19:32:00,
2013-07-26 12:37:00,75.6,56.1,29.99,East,84,2.0,8.0,51,0.00,,,0.00,meteohub,2013-07-26 19:37:00,
2013-07-26 12:47:00,75.2,54.1,29.99,ESE,111,2.0,6.0,48,0.00,,,0.00,meteohub,2013-07-26 19:47:00,
2013-07-26 12:52:00,74.8,54.3,29.99,East,101,0.0,5.0,49,0.00,,,0.00,meteohub,2013-07-26 19:52:00,
2013-07-26 12:57:00,74.5,53.4,29.99,SSE,166,2.0,5.0,48,0.00,,,0.00,meteohub,2013-07-26 19:57:00,
2013-07-26 13:02:00,74.1,52.5,29.99,SSE,150,5.0,5.0,47,0.00,,,0.00,meteohub,2013-07-26 20:02:00,
2013-07-26 13:07:00,73.9,52.5,29.99,ESE,121,1.0,5.0,47,0.00,,,0.00,meteohub,2013-07-26 20:07:00,
2013-07-26 13:17:00,73.8,52.9,29.99,SE,138,6.0,6.0,48,0.00,,,0.00,meteohub,2013-07-26 20:17:00,
2013-07-26 13:27:00,74.3,53.4,29.99,SW,229,0.0,6.0,48,0.00,,,0.00,meteohub,2013-07-26 20:27:00,
2013-07-26 13:32:00,74.7,52.5,29.99,SE,134,0.0,6.0,46,0.00,,,0.00,meteohub,2013-07-26 20:32:00,
2013-07-26 13:37:00,75.0,54.0,29.99,South,170,1.0,6.0,48,0.00,,,0.00,meteohub,2013-07-26 20:37:00,
2013-07-26 13:47:00,75.4,53.8,29.98,SE,131,0.0,6.0,47,0.00,,,0.00,meteohub,2013-07-26 20:47:00,
2013-07-26 13:52:00,75.9,54.9,29.99,East,100,0.0,7.0,48,0.00,,,0.00,meteohub,2013-07-26 20:52:00,
2013-07-26 14:02:00,78.1,53.8,29.98,ESE,108,0.0,5.0,43,0.00,,,0.00,meteohub,2013-07-26 21:02:00,
2013-07-26 14:12:00,78.1,55.0,29.99,West,279,0.0,0.0,45,0.00,,,0.00,meteohub,2013-07-26 21:12:00,
2013-07-26 14:17:00,77.9,54.3,29.99,WNW,290,0.0,0.0,44,0.00,,,0.00,meteohub,2013-07-26 21:17:00,
2013-07-26 14:22:00,78.3,54.0,29.98,WNW,293,0.0,0.0,43,0.00,,,0.00,meteohub,2013-07-26 21:22:00,
2013-07-26 14:27:00,78.3,52.7,29.98,ESE,117,0.0,0.0,41,0.00,,,0.00,meteohub,2013-07-26 21:27:00,
2013-07-26 14:32:00,78.3,53.2,29.98,West,278,1.0,0.0,42,0.00,,,0.00,meteohub,2013-07-26 21:32:00,
2013-07-26 14:42:00,78.4,50.7,29.98,NE,40,0.0,3.0,38,0.00,,,0.00,meteohub,2013-07-26 21:42:00,
2013-07-26 14:47:00,78.4,50.7,29.98,WNW,290,0.0,3.0,38,0.00,,,0.00,meteohub,2013-07-26 21:47:00,
2013-07-26 14:52:00,78.6,50.9,29.98,NE,51,1.0,2.0,38,0.00,,,0.00,meteohub,2013-07-26 21:52:00,
2013-07-26 14:57:00,79.3,52.2,29.98,ENE,63,1.0,2.0,39,0.00,,,0.00,meteohub,2013-07-26 21:57:00,
2013-07-26 15:07:00,79.2,50.7,29.98,NW,314,1.0,6.0,37,0.00,,,0.00,meteohub,2013-07-26 22:07:00,
2013-07-26 15:12:00,79.2,51.4,29.98,NE,37,0.0,6.0,38,0.00,,,0.00,meteohub,2013-07-26 22:12:00,
2013-07-26 15:22:00,79.7,51.1,29.98,East,85,2.0,4.0,37,0.00,,,0.00,meteohub,2013-07-26 22:22:00,
2013-07-26 15:32:00,78.6,50.9,29.98,NNE,22,0.0,3.0,38,0.00,,,0.00,meteohub,2013-07-26 22:32:00,
2013-07-26 15:37:00,78.1,51.1,29.98,West,263,1.0,3.0,39,0.00,,,0.00,meteohub,2013-07-26 22:37:00,
2013-07-26 15:42:00,77.2,54.1,29.98,East,87,2.0,4.0,45,0.00,,,0.00,meteohub,2013-07-26 22:42:00,
2013-07-26 15:47:00,75.7,54.1,29.98,ESE,108,2.0,8.0,47,0.00,,,0.00,meteohub,2013-07-26 22:47:00,
2013-07-26 15:52:00,74.8,54.3,29.99,SSE,160,3.0,8.0,49,0.00,,,0.00,meteohub,2013-07-26 22:52:00,
2013-07-26 15:57:00,74.3,54.5,29.98,ESE,103,1.0,8.0,50,0.00,,,0.00,meteohub,2013-07-26 22:57:00,
2013-07-26 16:02:00,74.3,54.5,29.98,East,98,0.0,9.0,50,0.00,,,0.00,meteohub,2013-07-26 23:02:00,
2013-07-26 16:07:00,74.5,55.2,29.99,East,88,2.0,9.0,51,0.00,,,0.00,meteohub,2013-07-26 23:07:00,
2013-07-26 16:12:00,74.3,56.1,29.99,SSE,150,0.0,7.0,53,0.00,,,0.00,meteohub,2013-07-26 23:12:00,
2013-07-26 16:22:00,73.8,57.0,29.98,ENE,77,4.0,8.0,56,0.00,,,0.00,meteohub,2013-07-26 23:22:00,
2013-07-26 16:27:00,73.4,57.2,29.98,NNE,25,2.0,8.0,57,0.00,,,0.00,meteohub,2013-07-26 23:27:00,
2013-07-26 16:37:00,73.2,57.6,29.98,North,9,2.0,8.0,58,0.00,,,0.00,meteohub,2013-07-26 23:37:00,
2013-07-26 16:42:00,73.2,57.6,29.98,ESE,113,5.0,8.0,58,0.00,,,0.00,meteohub,2013-07-26 23:42:00,
2013-07-26 16:52:00,72.9,57.7,29.98,NNW,347,1.0,11.0,59,0.00,,,0.00,meteohub,2013-07-26 23:52:00,
2013-07-26 17:02:00,72.0,57.7,29.98,SE,130,2.0,6.0,61,0.00,,,0.00,meteohub,2013-07-27 00:02:00,
2013-07-26 17:07:00,71.8,58.1,29.97,East,85,2.0,6.0,62,0.00,,,0.00,meteohub,2013-07-27 00:07:00,
2013-07-26 17:12:00,71.6,58.3,29.97,ENE,57,3.0,7.0,63,0.00,,,0.00,meteohub,2013-07-27 00:12:00,
2013-07-26 17:22:00,71.8,59.4,29.97,NE,56,2.0,7.0,65,0.00,,,0.00,meteohub,2013-07-27 00:22:00,
2013-07-26 17:32:00,71.8,59.7,29.96,NNE,30,0.0,4.0,66,0.00,,,0.00,meteohub,2013-07-27 00:32:00,
2013-07-26 17:37:00,72.0,59.9,29.96,NNE,29,0.0,4.0,66,0.00,,,0.00,meteohub,2013-07-27 00:37:00,
2013-07-26 17:47:00,72.3,60.3,29.95,NNE,29,0.0,0.0,66,0.00,,,0.00,meteohub,2013-07-27 00:47:00,
2013-07-26 17:52:00,72.7,60.6,29.95,NNE,29,0.0,0.0,66,0.00,,,0.00,meteohub,2013-07-27 00:52:00,
2013-07-26 17:57:00,72.9,60.8,29.95,NNE,28,0.0,0.0,66,0.00,,,0.00,meteohub,2013-07-27 00:57:00,
2013-07-26 18:02:00,72.9,61.3,29.94,NNE,29,0.0,0.0,67,0.00,,,0.00,meteohub,2013-07-27 01:02:00,
2013-07-26 18:12:00,72.3,60.8,29.94,NW,311,0.0,0.0,67,0.00,,,0.00,meteohub,2013-07-27 01:12:00,
2013-07-26 18:22:00,72.7,61.5,29.94,NW,311,0.0,0.0,68,0.00,,,0.00,meteohub,2013-07-27 01:22:00,
2013-07-26 18:32:00,72.3,61.5,29.94,NW,312,0.0,0.0,69,0.00,,,0.00,meteohub,2013-07-27 01:32:00,
2013-07-26 18:42:00,70.9,61.3,29.93,NW,312,0.0,0.0,72,0.00,,,0.00,meteohub,2013-07-27 01:42:00,
2013-07-26 18:47:00,70.7,61.7,29.93,NW,311,0.0,0.0,73,0.00,,,0.00,meteohub,2013-07-27 01:47:00,
2013-07-26 18:52:00,70.5,60.6,29.93,SSE,160,0.0,0.0,71,0.00,,,0.00,meteohub,2013-07-27 01:52:00,
2013-07-26 18:57:00,70.5,59.0,29.93,SSE,159,0.0,0.0,67,0.00,,,0.00,meteohub,2013-07-27 01:57:00,
2013-07-26 19:07:00,70.7,58.8,29.94,SSE,163,0.0,2.0,66,0.00,,,0.00,meteohub,2013-07-27 02:07:00,
2013-07-26 19:17:00,70.7,57.9,29.94,SSE,148,1.0,5.0,64,0.00,,,0.00,meteohub,2013-07-27 02:17:00,
2013-07-26 19:22:00,70.5,56.5,29.94,SSE,158,2.0,5.0,61,0.00,,,0.00,meteohub,2013-07-27 02:22:00,
2013-07-26 19:27:00,70.3,56.7,29.94,South,170,2.0,3.0,62,0.00,,,0.00,meteohub,2013-07-27 02:27:00,
2013-07-26 19:32:00,70.2,56.1,29.94,SSE,167,0.0,3.0,61,0.00,,,0.00,meteohub,2013-07-27 02:32:00,
2013-07-26 19:37:00,70.0,56.3,29.94,SE,134,0.0,3.0,62,0.00,,,0.00,meteohub,2013-07-27 02:37:00,
2013-07-26 19:42:00,69.8,56.7,29.94,SE,130,1.0,3.0,63,0.00,,,0.00,meteohub,2013-07-27 02:42:00,
2013-07-26 19:47:00,69.4,55.9,29.94,SE,135,0.0,2.0,62,0.00,,,0.00,meteohub,2013-07-27 02:47:00,
2013-07-26 19:52:00,69.3,54.9,29.94,SSE,151,0.0,2.0,60,0.00,,,0.00,meteohub,2013-07-27 02:52:00,
2013-07-26 19:57:00,69.3,55.2,29.94,SE,146,1.0,3.0,61,0.00,,,0.00,meteohub,2013-07-27 02:57:00,
2013-07-26 20:02:00,69.1,55.0,29.94,SSE,155,1.0,3.0,61,0.00,,,0.00,meteohub,2013-07-27 03:02:00,
2013-07-26 20:07:00,69.1,55.0,29.95,South,172,0.0,3.0,61,0.00,,,0.00,meteohub,2013-07-27 03:07:00,
2013-07-26 20:12:00,68.7,54.7,29.95,SE,124,0.0,3.0,61,0.00,,,0.00,meteohub,2013-07-27 03:12:00,
2013-07-26 20:17:00,68.7,54.3,29.95,SSE,148,0.0,4.0,60,0.00,,,0.00,meteohub,2013-07-27 03:17:00,
2013-07-26 20:22:00,68.7,54.3,29.95,SSW,203,2.0,4.0,60,0.00,,,0.00,meteohub,2013-07-27 03:22:00,
2013-07-26 20:27:00,68.5,54.1,29.96,SW,228,3.0,4.0,60,0.00,,,0.00,meteohub,2013-07-27 03:27:00,
2013-07-26 20:37:00,68.7,54.3,29.96,SE,134,1.0,4.0,60,0.00,,,0.00,meteohub,2013-07-27 03:37:00,
2013-07-26 20:47:00,68.7,53.8,29.96,SSE,155,2.0,4.0,59,0.00,,,0.00,meteohub,2013-07-27 03:47:00,
2013-07-26 20:52:00,68.5,53.6,29.96,SW,231,0.0,4.0,59,0.00,,,0.00,meteohub,2013-07-27 03:52:00,
2013-07-26 20:57:00,68.5,53.6,29.96,SW,214,0.0,4.0,59,0.00,,,0.00,meteohub,2013-07-27 03:57:00,
2013-07-26 21:02:00,68.7,53.8,29.96,SSE,151,5.0,5.0,59,0.00,,,0.00,meteohub,2013-07-27 04:02:00,
2013-07-26 21:07:00,68.7,53.4,29.97,SSW,200,1.0,5.0,58,0.00,,,0.00,meteohub,2013-07-27 04:07:00,
2013-07-26 21:12:00,68.7,53.4,29.97,SSE,155,1.0,5.0,58,0.00,,,0.00,meteohub,2013-07-27 04:12:00,
2013-07-26 21:17:00,68.7,52.9,29.97,SE,138,2.0,5.0,57,0.00,,,0.00,meteohub,2013-07-27 04:17:00,
2013-07-26 21:22:00,69.1,53.2,29.97,SE,134,2.0,4.0,57,0.00,,,0.00,meteohub,2013-07-27 04:22:00,
2013-07-26 21:27:00,69.3,54.9,29.97,SE,131,4.0,6.0,60,0.00,,,0.00,meteohub,2013-07-27 04:27:00,
2013-07-26 21:32:00,69.3,55.2,29.97,SSE,160,4.0,6.0,61,0.00,,,0.00,meteohub,2013-07-27 04:32:00,
2013-07-26 21:37:00,69.4,55.4,29.97,South,177,2.0,6.0,61,0.00,,,0.00,meteohub,2013-07-27 04:37:00,
2013-07-26 21:42:00,69.4,55.9,29.97,SE,141,3.0,6.0,62,0.00,,,0.00,meteohub,2013-07-27 04:42:00,
2013-07-26 21:47:00,69.4,56.3,29.97,SW,218,0.0,6.0,63,0.00,,,0.00,meteohub,2013-07-27 04:47:00,
2013-07-26 21:52:00,69.3,56.5,29.97,ESE,114,0.0,6.0,64,0.00,,,0.00,meteohub,2013-07-27 04:52:00,
2013-07-26 21:57:00,69.3,56.5,29.97,South,172,1.0,6.0,64,0.00,,,0.00,meteohub,2013-07-27 04:57:00,
2013-07-26 22:07:00,69.3,57.0,29.97,South,170,2.0,5.0,65,0.00,,,0.00,meteohub,2013-07-27 05:07:00,
2013-07-26 22:17:00,69.1,56.8,29.97,SSE,160,0.0,4.0,65,0.00,,,0.00,meteohub,2013-07-27 05:17:00,
2013-07-26 22:22:00,69.1,56.8,29.97,South,191,1.0,3.0,65,0.00,,,0.00,meteohub,2013-07-27 05:22:00,
2013-07-26 22:27:00,69.1,56.5,29.97,SSE,156,0.0,2.0,64,0.00,,,0.00,meteohub,2013-07-27 05:27:00,
2013-07-26 22:32:00,68.9,56.7,29.97,SSE,165,0.0,2.0,65,0.00,,,0.00,meteohub,2013-07-27 05:32:00,
2013-07-26 22:42:00,68.2,55.9,29.97,SSE,161,0.0,0.0,65,0.00,,,0.00,meteohub,2013-07-27 05:42:00,
2013-07-26 22:47:00,67.6,56.7,29.97,SSE,160,0.0,0.0,68,0.00,,,0.00,meteohub,2013-07-27 05:47:00,
2013-07-26 22:57:00,67.5,57.0,29.97,SSE,162,0.0,0.0,69,0.00,,,0.00,meteohub,2013-07-27 05:57:00,
2013-07-26 23:02:00,67.3,56.8,29.97,SSE,162,0.0,0.0,69,0.00,,,0.00,meteohub,2013-07-27 06:02:00,
2013-07-26 23:12:00,67.1,57.0,29.97,SSE,162,0.0,0.0,70,0.00,,,0.00,meteohub,2013-07-27 06:12:00,
2013-07-26 23:17:00,67.3,57.2,29.96,SSE,162,0.0,0.0,70,0.00,,,0.00,meteohub,2013-07-27 06:17:00,
2013-07-26 23:22:00,67.3,57.2,29.96,SSE,162,0.0,0.0,70,0.00,,,0.00,meteohub,2013-07-27 06:22:00,
2013-07-26 23:32:00,67.5,57.4,29.97,SSE,162,0.0,0.0,70,0.00,,,0.00,meteohub,2013-07-27 06:32:00,
2013-07-26 23:37:00,67.5,57.4,29.97,SSE,162,0.0,0.0,70,0.00,,,0.00,meteohub,2013-07-27 06:37:00,
2013-07-26 23:42:00,67.5,57.4,29.96,SSE,162,0.0,0.0,70,0.00,,,0.00,meteohub,2013-07-27 06:42:00,
2013-07-26 23:47:00,67.5,57.4,29.96,SSE,162,0.0,0.0,70,0.00,,,0.00,meteohub,2013-07-27 06:47:00,
2013-07-26 23:52:00,67.5,57.4,29.96,SSE,162,0.0,0.0,70,0.00,,,0.00,meteohub,2013-07-27 06:52:00,